Mobile, AL

11:19 AM CST on February 10, 2016 (GMT -0600)
Mobile Downtown

Weather History for KBFM - December, 2012

Change the Weather History Date:

Wednesday, December 5, 2012

  Actual Average Record
Temperature  
Mean Temperature 64 °F -  
Max Temperature 70 °F 63 °F 77 °F (1998)
Min Temperature 57 °F 45 °F 30 °F (2006)
Degree Days  
Heating Degree Days 2    
Growing Degree Days 14 (Base 50)    
Moisture  
Dew Point 60 °F    
Average Humidity 95    
Maximum Humidity 100    
Minimum Humidity 78    
Precipitation  
Precipitation 0.04 in - - ()
Sea Level Pressure  
Sea Level Pressure 30.14 in    
Wind  
Wind Speed 1 mph (NNE)    
Max Wind Speed 9 mph    
Max Gust Speed -    
Visibility 5 miles    
Events Fog , Rain    
Averages and records for this station are not official NWS values.
T = Trace of Precipitation, MM = Missing Value Source: NWS Daily Summary

Daily Weather History Graph

Daily Weather History Graph

Search for Another Location

Airport or City:

Trip Planner

Search our weather history database for the weather conditions in past years. The results will help you decide how hot, cold, wet, or windy it might be!

Date:

Astronomy

Dec. 05, 2012 Rise Set
Actual Time 6:35 AM CST 4:50 PM CST
Civil Twilight 6:09 AM CST 5:17 PM CST
Nautical Twilight 5:39 AM CST 5:47 PM CST
Astronomical Twilight 5:09 AM CST 6:16 PM CST
Moon 11:19 PM CST (12/5) 11:17 AM CST (12/5)
Length of Visible Light 11h 08m
Length of Day
10h 15m
Waning Gibbous, 59% of the Moon is Illuminated
Dec 5
Waning Gibbous
Dec 6
Last Quarter
Dec 13
New
Dec 19
First Quarter
Dec 28
Full

Hourly Weather History & Observations

Time (CST) Temp. Dew Point Humidity Pressure Visibility Wind Dir Wind Speed Gust Speed Precip Events Conditions
12:03 AM 62.6 °F 62.6 °F 100% 30.18 in 1.8 mi Calm Calm - N/A   Clear
12:22 AM 60.8 °F 60.8 °F 100% 30.17 in 0.5 mi Calm Calm - N/A Fog Fog
12:40 AM 60.8 °F 60.8 °F 100% 30.18 in 1.2 mi Calm Calm - N/A   Scattered Clouds
12:43 AM 60.8 °F 60.8 °F 100% 30.18 in 3.0 mi Calm Calm - N/A   Scattered Clouds
12:49 AM 60.8 °F 60.8 °F 100% 30.17 in 1.8 mi Calm Calm - N/A   Partly Cloudy
12:53 AM 60.1 °F 60.1 °F 100% 30.17 in 1.0 mi Calm Calm - N/A   Mist
12:57 AM 60.8 °F 60.8 °F 100% 30.17 in 0.8 mi Calm Calm - N/A   Clear
1:04 AM 60.8 °F 60.8 °F 100% 30.17 in 1.5 mi Calm Calm - N/A   Clear
1:09 AM 60.8 °F 60.8 °F 100% 30.17 in 3.0 mi Calm Calm - N/A   Clear
1:44 AM 57.2 °F 57.2 °F 100% 30.17 in 1.8 mi Calm Calm - N/A   Clear
1:51 AM 59.0 °F 59.0 °F 100% 30.17 in 0.8 mi Calm Calm - N/A   Mist
1:53 AM 59.0 °F 59.0 °F 100% 30.17 in 0.5 mi Calm Calm - N/A Fog Fog
2:26 AM 59.0 °F 59.0 °F 100% 30.18 in 0.2 mi Calm Calm - N/A Fog Fog
2:46 AM 57.2 °F 57.2 °F 100% 30.18 in 0.5 mi Calm Calm - N/A Fog Fog
2:53 AM 57.9 °F 57.9 °F 100% 30.18 in 0.8 mi Calm Calm - N/A   Overcast
2:57 AM 57.2 °F 57.2 °F 100% 30.18 in 1.2 mi Calm Calm - N/A   Overcast
3:17 AM 57.2 °F 57.2 °F 100% 30.17 in 0.2 mi Calm Calm - 0.01 in Fog Fog
3:19 AM 57.2 °F 57.2 °F 100% 30.17 in 0.2 mi Calm Calm - 0.01 in Fog Fog
3:26 AM 57.2 °F 57.2 °F 100% 30.17 in 0.2 mi Calm Calm - 0.01 in Fog Fog
3:49 AM 57.2 °F 57.2 °F 100% 30.16 in 0.5 mi Calm Calm - 0.01 in Fog Fog
3:53 AM 57.9 °F 57.9 °F 100% 30.17 in 4.0 mi Calm Calm - 0.01 in   Overcast
3:59 AM 59.0 °F 57.2 °F 94% 30.16 in 0.5 mi Calm Calm - N/A   Overcast
4:11 AM 57.2 °F 57.2 °F 100% 30.16 in 0.8 mi Calm Calm - N/A   Mostly Cloudy
4:18 AM 60.8 °F 60.8 °F 100% 30.16 in 5.0 mi Calm Calm - N/A   Mostly Cloudy
4:53 AM 57.9 °F 57.9 °F 100% 30.16 in 5.0 mi Calm Calm - N/A   Scattered Clouds
5:53 AM 59.0 °F 59.0 °F 100% 30.17 in 10.0 mi Calm Calm - N/A   Mostly Cloudy
6:53 AM 60.1 °F 60.1 °F 100% 30.18 in 10.0 mi Calm Calm - N/A   Mostly Cloudy
8:53 AM 64.0 °F 62.1 °F 93% 30.19 in 10.0 mi East 9.2 mph - 0.01 in   Mostly Cloudy
9:53 AM 64.9 °F 62.1 °F 90% 30.19 in 10.0 mi Calm Calm - 0.01 in   Overcast
10:53 AM 66.0 °F 62.1 °F 87% 30.17 in 10.0 mi NE 4.6 mph - N/A   Mostly Cloudy
11:53 AM 68.0 °F 62.1 °F 81% 30.14 in 10.0 mi NE 3.5 mph - N/A   Mostly Cloudy
12:53 PM 69.1 °F 62.1 °F 78% 30.10 in 10.0 mi Calm Calm - N/A   Mostly Cloudy
1:53 PM 70.0 °F 63.0 °F 78% 30.08 in 10.0 mi Calm Calm - 0.01 in Rain Light Rain
2:53 PM 70.0 °F 63.0 °F 78% 30.08 in 10.0 mi Calm Calm - 0.00 in   Mostly Cloudy
3:53 PM 69.1 °F 62.1 °F 78% 30.08 in 10.0 mi Calm Calm - N/A   Mostly Cloudy
4:48 PM 68.0 °F 64.4 °F 88% 30.08 in 10.0 mi Calm Calm - N/A   Overcast
4:53 PM 66.9 °F 64.0 °F 90% 30.08 in 10.0 mi Calm Calm - N/A   Overcast
5:53 PM 66.9 °F 63.0 °F 87% 30.09 in 10.0 mi NE 4.6 mph - N/A   Overcast
6:53 PM 64.0 °F 62.1 °F 93% 30.09 in 10.0 mi Calm Calm - N/A   Overcast
7:53 PM 64.9 °F 62.1 °F 90% 30.09 in 10.0 mi Calm Calm - N/A   Overcast
8:48 PM 64.4 °F 60.8 °F 88% 30.10 in 10.0 mi NNW 3.5 mph - N/A   Mostly Cloudy
8:53 PM 64.0 °F 61.0 °F 90% 30.09 in 10.0 mi North 3.5 mph - N/A   Mostly Cloudy
9:07 PM 64.4 °F 62.6 °F 94% 30.09 in 10.0 mi North 3.5 mph - N/A   Mostly Cloudy
9:53 PM 64.0 °F 62.1 °F 93% 30.09 in 10.0 mi North 3.5 mph - N/A   Mostly Cloudy
10:53 PM 64.9 °F 63.0 °F 93% 30.08 in 10.0 mi NNE 3.5 mph - N/A   Mostly Cloudy
11:53 PM 64.0 °F 62.1 °F 93% 30.07 in 10.0 mi ENE 3.5 mph - N/A   Overcast